Tracking 27107 objects as of 22-Mar-2023
HD Live streaming from Space Station
objects crossing your sky now

KSF1-D

Track KSF1-D now!
10-day predictions


NORAD ID: 48950
Int'l Code: 2021-059BZ
Perigee: 458.5 km
Apogee: 485.4 km
Inclination: 97.6 °
Period: 93.9 minutes
Semi major axis: 6842 km
RCS: Unknown
Launch date: June 30, 2021
Source: Luxembourg (LUXE)
Launch site: AIR FORCE EASTERN TEST RANGE (AFETR)
Your satellite tracking list
Your tracking list is empty




NASA's NSSDC Master Catalog

Two Line Element Set (TLE):
1 48950U 21059BZ  23080.91338729  .00041819  00000-0  12726-2 0  9991
2 48950  97.5835 219.4000 0019671 203.7957 255.3012 15.33701217 96281
Source of the keplerian elements: AFSPC